Hourly Weather Ghazni

Today, 5 August, Wednesday

Time Temperature Precipitation Wind Pressure Humidity
00:00 +25°C° 0 mm 3 mps 585 mmHg 35%
01:00 +25°C° 0 mm 3 mps 585 mmHg 38%
02:00 +25°C° 0 mm 2 mps 585 mmHg 42%
03:00 +24°C° 0 mm 2 mps 585 mmHg 39%
04:00 +22°C° 0 mm 3 mps 584 mmHg 36%
05:00 +22°C° 0 mm 3 mps 584 mmHg 33%
06:00 +22°C° 0 mm 3 mps 585 mmHg 30%
07:00 +24°C° 0 mm 3 mps 585 mmHg 26%
08:00 +25°C° 0 mm 3 mps 586 mmHg 23%
09:00 +26°C° 0 mm 3 mps 586 mmHg 22%
10:00 +27°C° 0 mm 2 mps 586 mmHg 22%
11:00 +28°C° 0 mm 2 mps 587 mmHg 21%
12:00 +30°C° 0 mm 2 mps 587 mmHg 19%
13:00 +31°C° 0 mm 3 mps 587 mmHg 17%
14:00 +33°C° 0 mm 3 mps 587 mmHg 15%
15:00 +33°C° 0 mm 3 mps 587 mmHg 14%
16:00 +33°C° 0 mm 3 mps 587 mmHg 14%
17:00 +34°C° 0 mm 3 mps 586 mmHg 13%
18:00 +33°C° 0 mm 3 mps 587 mmHg 14%
19:00 +31°C° 0 mm 3 mps 587 mmHg 15%
20:00 +30°C° 0 mm 2 mps 587 mmHg 15%
21:00 +29°C° 0 mm 3 mps 587 mmHg 20%
22:00 +28°C° 0 mm 4 mps 587 mmHg 25%
23:00 +27°C° 0 mm 4 mps 587 mmHg 30%

Tomorrow, 6 August, Thursday

Time Temperature Precipitation Wind Pressure Humidity
00:00 +26°C° 0 mm 3 mps 587 mmHg 33%
01:00 +25°C° 0 mm 2 mps 587 mmHg 35%
02:00 +25°C° 0 mm 1 mps 587 mmHg 38%
03:00 +24°C° 0 mm 1 mps 586 mmHg 39%
04:00 +24°C° 0 mm 1 mps 586 mmHg 41%
05:00 +23°C° 0 mm 1 mps 586 mmHg 42%
06:00 +24°C° 0 mm 1 mps 587 mmHg 39%
07:00 +25°C° 0 mm 2 mps 588 mmHg 35%
08:00 +26°C° 0 mm 2 mps 588 mmHg 32%
09:00 +27°C° 0 mm 1 mps 589 mmHg 29%
10:00 +29°C° 0 mm 1 mps 589 mmHg 26%
11:00 +30°C° 0 mm 1 mps 589 mmHg 23%
12:00 +31°C° 0 mm 1 mps 589 mmHg 20%
13:00 +32°C° 0 mm 2 mps 589 mmHg 17%
14:00 +34°C° 0 mm 2 mps 589 mmHg 14%
15:00 +34°C° 0 mm 2 mps 589 mmHg 14%
16:00 +35°C° 0 mm 3 mps 589 mmHg 13%
17:00 +35°C° 0 mm 3 mps 589 mmHg 13%
18:00 +33°C° 0 mm 4 mps 589 mmHg 18%
19:00 +32°C° 0 mm 5 mps 588 mmHg 24%
20:00 +29°C° 0 mm 6 mps 588 mmHg 30%
21:00 +29°C° 0 mm 5 mps 588 mmHg 32%
22:00 +28°C° 0 mm 4 mps 588 mmHg 35%
23:00 +27°C° 0 mm 3 mps 588 mmHg 37%

Day after tomorrow, 7 August, Friday

Time Temperature Precipitation Wind Pressure Humidity
00:00 +27°C° 0 mm 2 mps 588 mmHg 38%
01:00 +26°C° 0 mm 1 mps 588 mmHg 39%
02:00 +25°C° 0 mm 1 mps 587 mmHg 40%
03:00 +25°C° 0 mm 1 mps 587 mmHg 41%
04:00 +24°C° 0 mm 1 mps 587 mmHg 42%
05:00 +24°C° 0 mm 1 mps 587 mmHg 43%
06:00 +25°C° 0 mm 1 mps 587 mmHg 40%
07:00 +26°C° 0 mm 1 mps 588 mmHg 37%
08:00 +27°C° 0 mm 1 mps 589 mmHg 34%
09:00 +28°C° 0 mm 1 mps 589 mmHg 31%
10:00 +29°C° 0 mm 1 mps 589 mmHg 28%
11:00 +31°C° 0 mm 2 mps 590 mmHg 25%
12:00 +32°C° 0 mm 2 mps 590 mmHg 23%
13:00 +34°C° 0 mm 2 mps 590 mmHg 20%
14:00 +35°C° 0 mm 2 mps 590 mmHg 18%
15:00 +35°C° 0 mm 2 mps 589 mmHg 17%
16:00 +35°C° 0 mm 2 mps 589 mmHg 17%
17:00 +35°C° 0 mm 2 mps 589 mmHg 16%
18:00 +34°C° 0 mm 4 mps 589 mmHg 23%
19:00 +32°C° 0 mm 5 mps 588 mmHg 30%
20:00 +30°C° 0 mm 6 mps 588 mmHg 37%
21:00 +29°C° 0.1 mm 5 mps 588 mmHg 43%
22:00 +28°C° 0.1 mm 4 mps 588 mmHg 49%
23:00 +27°C° 0.1 mm 4 mps 588 mmHg 54%

8 August, Saturday

Time Temperature Precipitation Wind Pressure Humidity
00:00 +26°C° 0.1 mm 3 mps 588 mmHg 56%
01:00 +26°C° 0.1 mm 2 mps 587 mmHg 58%
02:00 +25°C° 0.1 mm 1 mps 587 mmHg 60%
03:00 +25°C° 0.1 mm 1 mps 587 mmHg 62%
04:00 +24°C° 0.1 mm 1 mps 586 mmHg 64%
05:00 +23°C° 0.1 mm 1 mps 586 mmHg 67%
06:00 +24°C° 0.1 mm 1 mps 586 mmHg 64%
07:00 +24°C° 0.1 mm 1 mps 587 mmHg 62%
08:00 +25°C° 0.1 mm 1 mps 587 mmHg 59%
09:00 +26°C° 0.1 mm 1 mps 587 mmHg 53%
10:00 +28°C° 0.1 mm 1 mps 587 mmHg 47%
11:00 +29°C° 0.1 mm 2 mps 587 mmHg 41%
12:00 +30°C° 0 mm 2 mps 587 mmHg 37%
13:00 +31°C° 0 mm 2 mps 587 mmHg 32%
14:00 +34°C° 0 mm 2 mps 587 mmHg 28%
15:00 +34°C° 0 mm 2 mps 587 mmHg 27%
16:00 +34°C° 0 mm 2 mps 587 mmHg 26%
17:00 +34°C° 0 mm 2 mps 587 mmHg 25%
18:00 +33°C° 0.1 mm 3 mps 587 mmHg 29%
19:00 +30°C° 0.1 mm 5 mps 586 mmHg 33%
20:00 +29°C° 0.1 mm 6 mps 586 mmHg 37%
21:00 +28°C° 0 mm 5 mps 586 mmHg 39%
22:00 +28°C° 0 mm 4 mps 586 mmHg 42%
23:00 +27°C° 0 mm 3 mps 586 mmHg 44%

9 August, Sunday

Time Temperature Precipitation Wind Pressure Humidity
00:00 +27°C° 0 mm 3 mps 586 mmHg 47%
01:00 +26°C° 0 mm 3 mps 585 mmHg 51%
02:00 +26°C° 0 mm 2 mps 585 mmHg 54%
03:00 +25°C° 0 mm 1 mps 585 mmHg 55%
04:00 +25°C° 0 mm 1 mps 585 mmHg 56%
05:00 +23°C° 0 mm 0 mps 584 mmHg 57%
06:00 +23°C° 0 mm 0 mps 585 mmHg 55%
07:00 +24°C° 0 mm 0 mps 585 mmHg 52%
08:00 +24°C° 0 mm 0 mps 585 mmHg 50%
09:00 +28°C° 0 mm 1 mps 586 mmHg 45%
10:00 +29°C° 0 mm 1 mps 586 mmHg 40%
11:00 +30°C° 0 mm 1 mps 586 mmHg 35%
12:00 +31°C° 0 mm 2 mps 586 mmHg 32%
13:00 +34°C° 0 mm 2 mps 586 mmHg 28%
14:00 +35°C° 0 mm 3 mps 586 mmHg 24%
15:00 +35°C° 0 mm 4 mps 586 mmHg 24%
16:00 +34°C° 0 mm 4 mps 586 mmHg 24%
17:00 +34°C° 0 mm 5 mps 585 mmHg 24%
18:00 +34°C° 0 mm 4 mps 585 mmHg 25%
19:00 +33°C° 0 mm 3 mps 585 mmHg 26%
20:00 +32°C° 0 mm 2 mps 585 mmHg 28%
21:00 +31°C° 0 mm 3 mps 585 mmHg 32%
22:00 +30°C° 0 mm 4 mps 586 mmHg 36%
23:00 +29°C° 0 mm 6 mps 586 mmHg 40%

10 August, Monday

Time Temperature Precipitation Wind Pressure Humidity
00:00 +28°C° 0 mm 4 mps 585 mmHg 45%
01:00 +27°C° 0 mm 3 mps 585 mmHg 49%
02:00 +26°C° 0 mm 1 mps 584 mmHg 53%
03:00 +25°C° 0 mm 1 mps 584 mmHg 56%
04:00 +25°C° 0 mm 1 mps 584 mmHg 59%
05:00 +24°C° 0 mm 1 mps 584 mmHg 61%
06:00 +25°C° 0 mm 1 mps 584 mmHg 57%
07:00 +26°C° 0 mm 1 mps 585 mmHg 53%
08:00 +27°C° 0 mm 1 mps 585 mmHg 48%
09:00 +28°C° 0 mm 1 mps 586 mmHg 42%
10:00 +30°C° 0 mm 1 mps 586 mmHg 36%
11:00 +31°C° 0 mm 1 mps 586 mmHg 30%
12:00 +34°C° 0 mm 2 mps 586 mmHg 26%
13:00 +35°C° 0 mm 2 mps 586 mmHg 22%
14:00 +36°C° 0 mm 3 mps 586 mmHg 18%
15:00 +36°C° 0 mm 4 mps 586 mmHg 18%
16:00 +37°C° 0 mm 4 mps 586 mmHg 17%
17:00 +37°C° 0 mm 5 mps 586 mmHg 16%
18:00 +36°C° 0 mm 6 mps 586 mmHg 20%
19:00 +34°C° 0 mm 6 mps 586 mmHg 24%
20:00 +33°C° 0 mm 7 mps 586 mmHg 28%
21:00 +32°C° 0 mm 7 mps 586 mmHg 35%
22:00 +29°C° 0 mm 6 mps 586 mmHg 42%
23:00 +28°C° 0 mm 6 mps 586 mmHg 49%
Show more